Regional Weather Roundup
Issued by NWS

Home | Current Version | Previous Version | Text Only | Print | Product List | Glossary On
Versions: 1 2 3 4 5 6 7 8 9 10 11 12 13 14 15 16 17 18 19 20 21 22 23 24 25 26 27 28 29 30 31 32 33 34 35 36 37 38 39 40 41 42 43 44 45 46 47 48 49 50
000
ASUS45 KBOU 251310
RWRCO

WEATHER ROUNDUP FOR COLORADO
NATIONAL WEATHER SERVICE PUEBLO CO
600 AM MST SUN FEB 25 2018

NOTE: "FAIR" INDICATES FEW OR NO CLOUDS BELOW 12000 FEET WITH NO
SIGNIFICANT WEATHER AND/OR OBSTRUCTIONS TO VISIBILITY.

COZ001>005-013-030-031-251400-
...NORTHWEST COLORADO...

CITY           SKY/WX    TMP DP  RH WIND       PRES   REMARKS
CRAIG          MOCLDY     7   4  87 CALM      29.95R
HAYDEN         CLOUDY    11   9  92 CALM      29.94R
MEEKER         PTCLDY    11   6  81 CALM      29.96R
RABBIT EARS PA NOT AVBL
STEAMBOAT SPGS CLOUDY    12  10  92 CALM      29.90R VSB 1/2
WALDEN         FAIR       9   3  78 W9        29.81R WCI  -5
$$

COZ006>008-011-251400-
...WEST CENTRAL VALLEYS...

CITY           SKY/WX    TMP DP  RH WIND       PRES   REMARKS
GRAND JUNCTION PTCLDY    21  19  92 SE7       30.03R WCI  12
MONTROSE       CLOUDY    21  16  81 SE3       30.03R
EAGLE          PTCLDY    11   7  84 SE7       29.96R WCI   0
RIFLE          CLOUDY    17  12  80 CALM      30.01R
DELTA          NOT AVBL
NUCLA          FAIR      18  14  86 SE5       30.04R WCI  11
$$

COZ017>023-064>068-251400-
...SOUTHWEST COLORADO...

CITY           SKY/WX    TMP DP  RH WIND       PRES   REMARKS
DURANGO        MOCLDY    21  15  78 SW8       29.94R WCI  11
CORTEZ         MOCLDY    19  14  81 CALM      30.01R
PAGOSA SPRINGS FLURRIES  17  15  95 CALM      29.91R
TELLURIDE      LGT SNOW  12  10  90 W3        29.91R
WOLF CREEK PAS CLOUDY     1   0  92 SW5       29.82R WCI  -8
$$

COZ009-010-012-014-032>034-037-058>063-251400-
...CENTRAL COLORADO...

CITY           SKY/WX    TMP DP  RH WIND       PRES   REMARKS
ASPEN          CLOUDY    10   6  84 CALM      29.88R
BUENA VISTA    FAIR      11   3  70 W3        29.85R
COPPER MTN     LGT SNOW   1  -6  71 W20G33    29.67R WCI -20
BERTHOUD PASS  SNOW      -8 -17  65 NW32G44   29.59S VSB 1/2 WCI -37
COTTONWOOD PAS CLOUDY    14   1  57 W14G25    29.78R WCI  -1
GUNNISON       PTCLDY     4   0  83 S3        29.91R
KREMMLING      MOCLDY    14   9  79 CALM      29.88R
LEADVILLE      LGT SNOW   4  -2  76 NW10      29.77R WCI -11
MONARCH PASS   CLOUDY     0  -6  78 W24G35    29.81R WCI -24
SALIDA         FAIR      19   4  52 NW6       29.93R WCI  11
SUNLIGHT       SNOW       3   0  85 W8        29.82S VSB 1/2 WCI -10
WILKERSON PASS CLEAR      1  -4  78 W10G20    29.71F WCI -14
$$

COZ069>075-251400-
...SAN LUIS VALLEY/SANGRE DE CRISTO MOUNTAINS...

CITY           SKY/WX    TMP DP  RH WIND       PRES   REMARKS
ALAMOSA        MOCLDY    12   4  70 NE8       29.87R WCI   0
DEL NORTE      FAIR      12   4  70 W6        29.87R WCI   3
LA VETA PASS   LGT SNOW   9   5  85 MISG      29.88R
SAGUACHE       NOT AVBL
$$

COZ035-036-038>040-251400-
...NORTHERN COLORADO FRONT RANGE...

CITY           SKY/WX    TMP DP  RH WIND       PRES   REMARKS
DENVER INTL AP PTCLDY    22   2  42 W6        29.85R WCI  14
DMNS CITY PARK NOT AVBL
AURORA         PTCLDY    17   2  51 CALM      29.85R
FRONT RANGE AP FAIR      20   5  52 W10       29.85R WCI   8
ERIE MUNI ARPT FAIR      22   3  43 N8        29.90R WCI  13
BOULDER MUN AP FAIR      28   5  37 W23G29    29.83R WCI  14
CENTENNIAL     PTCLDY    16   2  54 SW8       29.83R WCI   5
BROOMFIELD     PTCLDY    25   5  42 W32G41    29.80  WCI   7
LOVELAND       CLEAR     16   5  62 NW7       29.85R WCI   6
LONGMONT       FAIR      28   6  39 W25G32    29.85R WCI  14
$$

COZ041-046-047-076>085-087-088-251400-
...PIKES PEAK/PALMER DIVIDE AND SOUTHERN FOOTHILLS...

CITY           SKY/WX    TMP DP  RH WIND       PRES   REMARKS
COLO. SPRINGS  PTCLDY    15   4  61 E8        29.87R WCI   4
A. F. ACADEMY  CLEAR     15   2  56 W6        29.83S WCI   6
SCHRIEVER AFB  NOT AVBL
CHEYENNE MTN   NOT AVBL
ELLICOTT         N/A    N/A N/A N/A NW3         N/A
FALCON         FAIR      10   2  68 SW8       29.84S WCI  -2
FORT CARSON    CLEAR     12   4  69 CALM      29.86R
LIMON          CLEAR      4   1  88 N3        29.87R
MONUMENT HILL  CLEAR     16   3  57 SW10      29.82R WCI   3
CANON CITY     CLEAR     16   7  67 W9        29.89S WCI   4
WALSENBURG     NOT AVBL
TRINIDAD       CLEAR     15   2  56 S8        29.87R WCI   4
$$

COZ042>045-048>051-090-091-251400-
...NORTHEAST COLORADO...

CITY           SKY/WX    TMP DP  RH WIND       PRES   REMARKS
GREELEY ARPT   CLEAR      8   3  80 NW8       29.86R WCI  -4
AKRON          CLEAR     18   7  62 SW15      29.85R WCI   4
BURLINGTON     CLEAR     17  10  74 W12       29.89R WCI   4
WRAY           FAIR      19  12  73 W9        29.89S WCI   9
YUMA           NOT AVBL
STERLING       FAIR      14  10  85 SW3       29.86S
HOLYOKE        FAIR      19  12  73 NW9       29.88R WCI   9
FORT MORGAN    FAIR      13   6  72 W5        29.87R WCI   5
$$

COZ086-089-092>099-251400-
...SOUTHEAST COLORADO...

CITY           SKY/WX    TMP DP  RH WIND       PRES   REMARKS
PUEBLO         CLEAR     14   6  70 W5        29.91R WCI   6
LA JUNTA       CLEAR     15   9  76 W9        29.92R WCI   3
LAMAR          CLEAR      4   0  83 S7        29.93R WCI  -8
SPRINGFIELD      N/A     15   5  64 NW3       29.91R
$$




USA.gov is the U.S. government's official web portal to all federal, state and local government web resources and services.